Home   Weather   Metz   Past weeks

Flag for France Past Weather in Metz, Lorraine, France — Yesterday and Last 2 Weeks

54 °F


Feels Like: 54 °F
Forecast: 42 / 58 °F
Wind: 2 mph from North

Location: Metz-Nancy-Lorraine

Current Time: Oct 25, 2016 at 10:32:32 AM

Latest Report: Oct 25, 2016 at 10:00 AM

Visibility: N/A

Pressure: 30.18 "Hg

Humidity: 94%

Dew Point: 52 °F

Location of MetzLocation

Past Weather in Metz — Graph


Metz Temperature Yesterday

Maximum temperature yesterday: 54 °F (at 3:00 PM)
Minimum temperature yesterday: 46 °F (at 12:00 AM)
Average temperature yesterday: 50 °F

High & Low Weather Summary for the Past Weeks

High66 °F (Oct 16, 3:00 PM)100% (Oct 10, 9:00 AM)30.27 "Hg (Oct 10, 9:00 AM)
Low32 °F (Oct 23, 6:30 AM)51% (Oct 11, 2:30 PM)29.62 "Hg (Oct 14, 4:30 PM)
Average49 °F87%30.00 "Hg
* Reported Oct 10 9:00 AM — Oct 25 9:30 AM, Metz, Weather by CustomWeather, © 2016

Note: Actual official high and low records may vary slightly from our data, if they occured in-between our weather recording intervals... More about our weather records


Metz Weather History for the Previous 24 Hours

Scroll right to see more
Time TempWeatherWind HumidityBarometerVisibility
9:30 AM
Tue, Oct 25
54 °FOvercast.No wind94%30.18 "HgN/A
9:00 AM52 °FOvercast.5 mph100%30.18 "Hg5 mi
8:30 AM52 °FLow clouds.3 mph100%30.15 "Hg5 mi
8:00 AM54 °FMostly cloudy.2 mph94%30.15 "HgN/A
7:30 AM54 °FOvercast.5 mph94%30.15 "HgN/A
7:00 AM54 °FOvercast.6 mph94%30.12 "HgN/A
6:30 AM52 °FOvercast.8 mph100%30.12 "HgN/A
6:00 AM52 °FOvercast.7 mph100%30.12 "HgN/A
5:30 AM52 °FOvercast.6 mph100%30.09 "HgN/A
5:00 AM52 °FPassing clouds.3 mph100%30.09 "HgN/A
4:30 AM52 °FPartly cloudy.6 mph100%30.09 "Hg5 mi
4:00 AM54 °FMostly cloudy.6 mph100%30.07 "Hg4 mi
3:30 AM54 °FPartly cloudy.5 mph100%30.07 "HgN/A
3:00 AM54 °FLight rain. Fog.3 mph100%30.07 "Hg2 mi
2:30 AM54 °FLight rain. Fog.5 mph100%30.07 "Hg3 mi
2:00 AM54 °FLight rain. Fog.5 mph100%30.04 "Hg2 mi
1:30 AM54 °FLight rain. Fog.3 mph100%30.04 "Hg2 mi
1:00 AM54 °FLight rain. Fog.1 mph100%30.01 "Hg1 mi
12:30 AM54 °FLight rain. Low clouds.2 mph100%30.01 "Hg1 mi
12:00 AM52 °FLight rain. Low clouds.2 mph100%30.01 "Hg1 mi
11:30 PM
Mon, Oct 24
52 °FFog.3 mph100%30.01 "Hg1 mi
11:00 PM52 °FFog.5 mph100%29.98 "Hg1 mi
10:30 PM52 °FFog.1 mph100%29.98 "Hg2 mi
10:00 PM52 °FPartly cloudy.No wind100%29.95 "Hg1 mi
9:30 PM52 °FLight rain. Fog.2 mph100%29.95 "Hg3 mi
9:00 PM52 °FLight rain. Fog.5 mph100%29.95 "Hg3 mi
8:30 PM52 °FLight rain. Fog.6 mph100%29.95 "Hg3 mi
8:00 PM52 °FFog.2 mph100%29.95 "Hg3 mi
7:30 PM52 °FLight rain. Fog.3 mph100%29.92 "Hg2 mi
7:00 PM52 °FLight rain. Fog.3 mph100%29.92 "Hg2 mi
6:30 PM54 °FFog.3 mph100%29.92 "Hg2 mi
6:00 PM54 °FLight rain. Fog.5 mph94%29.92 "Hg2 mi
5:30 PM54 °FRain. Low clouds.3 mph100%29.89 "Hg4 mi
5:00 PM54 °FLight rain. Mostly cloudy.2 mph100%29.89 "HgN/A
4:30 PM54 °FLow clouds.3 mph100%29.89 "HgN/A
4:00 PM54 °FMostly cloudy.5 mph100%29.89 "HgN/A
3:30 PM54 °FMostly cloudy.6 mph100%29.89 "HgN/A
3:00 PM54 °FLow clouds.No wind100%29.89 "Hg4 mi
2:30 PM52 °FLow clouds.No wind100%29.89 "Hg4 mi
2:00 PM52 °FFog.3 mph100%29.89 "Hg2 mi
1:30 PM52 °FLight rain. Mostly cloudy.5 mph100%29.86 "Hg1 mi
1:00 PM52 °FFog.3 mph100%29.86 "Hg1 mi
12:30 PM52 °FFog.3 mph100%29.86 "Hg2 mi
12:00 PM52 °FFog.5 mph100%29.86 "Hg2 mi
11:30 AM50 °FRain. Fog.3 mph100%29.86 "Hg1 mi
11:00 AM50 °FLight rain. Fog.3 mph100%29.86 "Hg2 mi
10:30 AM50 °FFog.3 mph100%29.86 "Hg3 mi
10:00 AM50 °FLight rain. Fog.9 mph100%29.86 "Hg2 mi
Weather by CustomWeather, © 2016

See weather overviewHow to use our weather pages